,,,PA_Meas_PMT16A,,PR_Meas_QMR101_102,,RH_Meas_QMH101,,SR_Meas_QMS101,,TA_Meas_QMH101,,GenWind,,GenWind,
date,time,status,PA,status,PR,status,RH,status,SR,status,TA,status,DirAvg,status,SpdAvg,
2012-05-04, 00:00:04,VALID,1003.43,VALID,0,VALID,94.3769,VALID,0,VALID,24.2857,VALID,3,VALID,0,
2012-05-04, 00:01:04,VALID,1003.44,VALID,0,VALID,94.3921,VALID,0,VALID,24.2662,VALID,3,VALID,0,
2012-05-04, 00:02:04,VALID,1003.42,VALID,0,VALID,94.4074,VALID,0,VALID,24.307,VALID,3,VALID,0,
2012-05-04, 00:03:04,VALID,1003.43,VALID,0,VALID,94.415,VALID,0.0815089,VALID,24.3052,VALID,3,VALID,0,
2012-05-04, 00:04:04,VALID,1003.45,VALID,0,VALID,94.3998,VALID,0.0815089,VALID,24.2857,VALID,3,VALID,0,
2012-05-04, 00:05:04,VALID,1003.44,VALID,0,VALID,94.3845,VALID,0.0815089,VALID,24.2857,VALID,3,VALID,0,
2012-05-04, 00:06:04,VALID,1003.44,VALID,0,VALID,94.3769,VALID,0,VALID,24.2857,VALID,3,VALID,0,
2012-05-04, 00:07:04,VALID,1003.41,VALID,0,VALID,94.3845,VALID,0,VALID,24.2875,VALID,3,VALID,0,
2012-05-04, 00:08:04,VALID,1003.39,VALID,0,VALID,94.3921,VALID,0,VALID,24.2857,VALID,3,VALID,0,
2012-05-04, 00:09:04,VALID,1003.4,VALID,0,VALID,94.3845,VALID,0.0815089,VALID,24.2644,VALID,3,VALID,0,
2012-05-04, 00:10:04,VALID,1003.35,VALID,0,VALID,94.3845,VALID,0,VALID,24.2662,VALID,3,VALID,0,
2012-05-04, 00:11:04,VALID,1003.33,VALID,0,VALID,94.3692,VALID,0,VALID,24.2468,VALID,3,VALID,0,
2012-05-04, 00:12:04,VALID,1003.32,VALID,0,VALID,94.354,VALID,0,VALID,24.2681,VALID,3,VALID,0,
2012-05-04, 00:13:04,VALID,1003.31,VALID,0,VALID,94.3235,VALID,0,VALID,24.2273,VALID,3,VALID,0,
2012-05-04, 00:14:04,VALID,1003.31,VALID,0,VALID,94.3464,VALID,0,VALID,24.2078,VALID,3,VALID,0,
2012-05-04, 00:15:04,VALID,1003.27,VALID,0,VALID,94.354,VALID,0,VALID,24.2078,VALID,3,VALID,0,
2012-05-04, 00:16:04,VALID,1003.26,VALID,0,VALID,94.3998,VALID,0,VALID,24.2291,VALID,3,VALID,0,
2012-05-04, 00:17:04,VALID,1003.27,VALID,0,VALID,94.4532,VALID,0,VALID,24.2486,VALID,3,VALID,0,
2012-05-04, 00:18:04,VALID,1003.27,VALID,0,VALID,94.4532,VALID,0,VALID,24.2273,VALID,3,VALID,0,
2012-05-04, 00:19:04,VALID,1003.25,VALID,0,VALID,94.415,VALID,0,VALID,24.2078,VALID,3,VALID,0,
2012-05-04, 00:20:04,VALID,1003.22,VALID,0,VALID,94.3769,VALID,0,VALID,24.1671,VALID,3,VALID,0,
2012-05-04, 00:21:04,VALID,1003.22,VALID,0,VALID,94.3464,VALID,0,VALID,24.1902,VALID,3,VALID,0,
2012-05-04, 00:22:04,VALID,1003.23,VALID,0,VALID,94.3616,VALID,0,VALID,24.13,VALID,3,VALID,0,
2012-05-04, 00:23:04,VALID,1003.22,VALID,0,VALID,94.354,VALID,0,VALID,24.1318,VALID,3,VALID,0,
2012-05-04, 00:24:04,VALID,1003.19,VALID,0,VALID,94.4074,VALID,0,VALID,24.1513,VALID,3,VALID,0,
2012-05-04, 00:25:04,VALID,1003.19,VALID,0,VALID,94.4379,VALID,0,VALID,24.1087,VALID,3,VALID,0,
2012-05-04, 00:26:04,VALID,1003.19,VALID,0,VALID,94.4379,VALID,0,VALID,24.13,VALID,3,VALID,0,
2012-05-04, 00:27:04,VALID,1003.15,VALID,0,VALID,94.4608,VALID,0,VALID,24.1494,VALID,3,VALID,0,
2012-05-04, 00:28:04,VALID,1003.14,VALID,0,VALID,94.4913,VALID,0,VALID,24.1689,VALID,3,VALID,0,
2012-05-04, 00:29:04,VALID,1003.13,VALID,0,VALID,94.5218,VALID,0,VALID,24.1884,VALID,3,VALID,0,
2012-05-04, 00:30:04,VALID,1003.11,VALID,0,VALID,94.56,VALID,0,VALID,24.1884,VALID,3,VALID,0,
2012-05-04, 00:31:04,VALID,1003.13,VALID,0,VALID,94.5523,VALID,0,VALID,24.2078,VALID,3,VALID,0.523438,
2012-05-04, 00:32:04,VALID,1003.09,VALID,0,VALID,94.5447,VALID,0,VALID,24.1865,VALID,3,VALID,0.45625,
2012-05-04, 00:33:04,VALID,1003.08,VALID,0,VALID,94.4989,VALID,0,VALID,24.1689,VALID,3,VALID,0.491406,
2012-05-04, 00:34:04,VALID,1003.11,VALID,0,VALID,94.4837,VALID,0,VALID,24.1689,VALID,3,VALID,0.373828,
2012-05-04, 00:35:04,VALID,1003.14,VALID,0,VALID,94.4684,VALID,0,VALID,24.1494,VALID,3,VALID,0.353906,
2012-05-04, 00:36:04,VALID,1003.09,VALID,0,VALID,94.5142,VALID,0,VALID,24.1494,VALID,3,VALID,0,
2012-05-04, 00:37:04,VALID,1003.09,VALID,0,VALID,94.5295,VALID,0,VALID,24.1689,VALID,3,VALID,0,
2012-05-04, 00:38:04,VALID,1003.07,VALID,0,VALID,94.5523,VALID,0.0815089,VALID,24.1689,VALID,3,VALID,0,
2012-05-04, 00:39:04,VALID,1003.04,VALID,0,VALID,94.5523,VALID,0,VALID,24.1689,VALID,3,VALID,0,
2012-05-04, 00:40:04,VALID,1003,VALID,0,VALID,94.5295,VALID,0,VALID,24.1689,VALID,3,VALID,0,
2012-05-04, 00:41:04,VALID,1003,VALID,0,VALID,94.5142,VALID,0,VALID,24.13,VALID,3,VALID,0,
2012-05-04, 00:42:04,VALID,1002.99,VALID,0,VALID,94.5066,VALID,0,VALID,24.1105,VALID,3,VALID,0,
2012-05-04, 00:43:04,VALID,1002.95,VALID,0,VALID,94.5142,VALID,0.0815089,VALID,24.1105,VALID,3,VALID,0,
2012-05-04, 00:44:04,VALID,1002.94,VALID,0,VALID,94.5295,VALID,0,VALID,24.091,VALID,3,VALID,0,
2012-05-04, 00:45:04,VALID,1002.95,VALID,0,VALID,94.5447,VALID,0,VALID,24.1105,VALID,3,VALID,0,
2012-05-04, 00:46:04,VALID,1002.94,VALID,0,VALID,94.6057,VALID,0,VALID,24.13,VALID,3,VALID,0.500391,
2012-05-04, 00:47:04,VALID,1002.92,VALID,0,VALID,94.5905,VALID,0,VALID,24.13,VALID,3,VALID,0.426953,
2012-05-04, 00:48:04,VALID,1002.9,VALID,0,VALID,94.621,VALID,0.0815089,VALID,24.13,VALID,3,VALID,0.413672,
2012-05-04, 00:49:04,VALID,1002.88,VALID,0,VALID,94.621,VALID,0.0815089,VALID,24.1105,VALID,3,VALID,0.396484,
2012-05-04, 00:50:04,VALID,1002.86,VALID,0,VALID,94.6134,VALID,0.0815089,VALID,24.13,VALID,3,VALID,0.257031,
2012-05-04, 00:51:04,VALID,1002.85,VALID,0,VALID,94.6363,VALID,0,VALID,24.13,VALID,3,VALID,0.465625,
2012-05-04, 00:52:04,VALID,1002.84,VALID,0,VALID,94.6591,VALID,0,VALID,24.13,VALID,3,VALID,0.513281,
2012-05-04, 00:53:04,VALID,1002.82,VALID,0,VALID,94.6744,VALID,0,VALID,24.1494,VALID,3,VALID,0.599219,
2012-05-04, 00:54:04,VALID,1002.78,VALID,0,VALID,94.6515,VALID,0,VALID,24.1513,VALID,3,VALID,0.530469,
2012-05-04, 00:55:04,VALID,1002.76,VALID,0,VALID,94.6363,VALID,0,VALID,24.13,VALID,3,VALID,0.514063,
2012-05-04, 00:56:04,VALID,1002.74,VALID,0,VALID,94.6286,VALID,0,VALID,24.1105,VALID,3,VALID,0.430078,
2012-05-04, 00:57:04,VALID,1002.73,VALID,0,VALID,94.6286,VALID,0,VALID,24.13,VALID,358,VALID,0.398828,
2012-05-04, 00:58:04,VALID,1002.71,VALID,0,VALID,94.6363,VALID,0,VALID,24.13,VALID,358,VALID,0.430859,
2012-05-04, 00:59:04,VALID,1002.69,VALID,0,VALID,94.6439,VALID,0,VALID,24.13,VALID,354,VALID,0.412891,
2012-05-04, 01:00:04,VALID,1002.66,VALID,0,VALID,94.6515,VALID,0,VALID,24.1105,VALID,354,VALID,0.485156,
2012-05-04, 01:01:04,VALID,1002.62,VALID,0,VALID,94.6591,VALID,0.0815089,VALID,24.1105,VALID,354,VALID,0.600391,
2012-05-04, 01:02:04,VALID,1002.64,VALID,0,VALID,94.6668,VALID,0,VALID,24.1105,VALID,354,VALID,0.546875,
2012-05-04, 01:03:04,VALID,1002.6,VALID,0,VALID,94.6515,VALID,0.0815089,VALID,24.13,VALID,354,VALID,0.489844,
2012-05-04, 01:04:04,VALID,1002.62,VALID,0,VALID,94.6363,VALID,0,VALID,24.0892,VALID,354,VALID,0.417969,
2012-05-04, 01:05:04,VALID,1002.59,VALID,0,VALID,94.6439,VALID,0.0815089,VALID,24.13,VALID,348,VALID,0.555859,
2012-05-04, 01:06:04,VALID,1002.56,VALID,0,VALID,94.6286,VALID,0,VALID,24.1105,VALID,348,VALID,0.445703,
2012-05-04, 01:07:04,VALID,1002.57,VALID,0,VALID,94.6439,VALID,0,VALID,24.1318,VALID,348,VALID,0.537109,
2012-05-04, 01:08:04,VALID,1002.54,VALID,0,VALID,94.6591,VALID,0,VALID,24.13,VALID,348,VALID,0.468359,
2012-05-04, 01:09:04,VALID,1002.56,VALID,0,VALID,94.6668,VALID,0,VALID,24.1318,VALID,348,VALID,0.436719,
2012-05-04, 01:10:04,VALID,1002.54,VALID,0,VALID,94.6668,VALID,0,VALID,24.1087,VALID,348,VALID,0.498828,
2012-05-04, 01:11:04,VALID,1002.55,VALID,0,VALID,94.682,VALID,0,VALID,24.13,VALID,348,VALID,0.506641,
2012-05-04, 01:12:05,VALID,1002.52,VALID,0,VALID,94.6668,VALID,0,VALID,24.1087,VALID,348,VALID,0.384375,
2012-05-04, 01:13:05,VALID,1002.5,VALID,0,VALID,94.6744,VALID,0,VALID,24.1087,VALID,348,VALID,0.432031,
2012-05-04, 01:14:05,VALID,1002.5,VALID,0,VALID,94.6591,VALID,0.0815089,VALID,24.1105,VALID,348,VALID,0.483984,
2012-05-04, 01:15:05,VALID,1002.5,VALID,0,VALID,94.6668,VALID,0,VALID,24.1105,VALID,348,VALID,0.476172,
2012-05-04, 01:16:05,VALID,1002.48,VALID,0,VALID,94.682,VALID,0,VALID,24.091,VALID,348,VALID,0.447656,
2012-05-04, 01:17:05,VALID,1002.48,VALID,0,VALID,94.7049,VALID,0,VALID,24.13,VALID,348,VALID,0.322266,
2012-05-04, 01:18:05,VALID,1002.48,VALID,0,VALID,94.7202,VALID,0,VALID,24.13,VALID,348,VALID,0.437109,
2012-05-04, 01:19:05,VALID,1002.45,VALID,0,VALID,94.7125,VALID,0,VALID,24.1707,VALID,348,VALID,0.396484,
2012-05-04, 01:20:05,VALID,1002.46,VALID,0,VALID,94.7278,VALID,0,VALID,24.1494,VALID,348,VALID,0.476953,
2012-05-04, 01:21:05,VALID,1002.45,VALID,0,VALID,94.7049,VALID,0,VALID,24.1494,VALID,348,VALID,0.552344,
2012-05-04, 01:22:05,VALID,1002.47,VALID,0,VALID,94.7125,VALID,0,VALID,24.1494,VALID,354,VALID,0.497656,
2012-05-04, 01:23:05,VALID,1002.43,VALID,0,VALID,94.682,VALID,0,VALID,24.1087,VALID,354,VALID,0.421484,
2012-05-04, 01:24:05,VALID,1002.41,VALID,0,VALID,94.6515,VALID,0,VALID,24.1318,VALID,354,VALID,0.448438,
2012-05-04, 01:25:05,VALID,1002.43,VALID,0,VALID,94.6744,VALID,0,VALID,24.13,VALID,354,VALID,0.571094,
2012-05-04, 01:26:05,VALID,1002.42,VALID,0,VALID,94.7583,VALID,0,VALID,24.1494,VALID,354,VALID,0.678516,
2012-05-04, 01:27:05,VALID,1002.43,VALID,0,VALID,94.7278,VALID,0.0815089,VALID,24.1689,VALID,354,VALID,0.440625,
2012-05-04, 01:28:05,VALID,1002.43,VALID,0,VALID,94.7202,VALID,0,VALID,24.1689,VALID,354,VALID,0.450391,
2012-05-04, 01:29:05,VALID,1002.42,VALID,0,VALID,94.7431,VALID,0.0815089,VALID,24.1689,VALID,354,VALID,0.455469,
2012-05-04, 01:30:05,VALID,1002.4,VALID,0,VALID,94.7888,VALID,0.0815089,VALID,24.2078,VALID,354,VALID,0.564062,
2012-05-04, 01:31:05,VALID,1002.36,VALID,0,VALID,94.7965,VALID,0,VALID,24.2273,VALID,354,VALID,0.482031,
2012-05-04, 01:32:05,VALID,1002.34,VALID,0,VALID,94.7202,VALID,0,VALID,24.2078,VALID,354,VALID,0.454297,
2012-05-04, 01:33:05,VALID,1002.34,VALID,0,VALID,94.7354,VALID,0,VALID,24.2078,VALID,354,VALID,0.547266,
2012-05-04, 01:34:05,VALID,1002.34,VALID,0,VALID,94.7354,VALID,0,VALID,24.2291,VALID,354,VALID,0.594922,
2012-05-04, 01:35:05,VALID,1002.32,VALID,0,VALID,94.7049,VALID,0.0815089,VALID,24.2273,VALID,2,VALID,0.3125,
2012-05-04, 01:36:05,VALID,1002.3,VALID,0,VALID,94.7507,VALID,0,VALID,24.2468,VALID,2,VALID,0.346094,
2012-05-04, 01:37:05,VALID,1002.3,VALID,0,VALID,94.7354,VALID,0,VALID,24.2468,VALID,2,VALID,0.617578,
2012-05-04, 01:38:05,VALID,1002.26,VALID,0,VALID,94.7507,VALID,0,VALID,24.2857,VALID,2,VALID,0.708984,
2012-05-04, 01:39:05,VALID,1002.27,VALID,0,VALID,94.766,VALID,0,VALID,24.3265,VALID,2,VALID,0.826563,
2012-05-04, 01:40:05,VALID,1002.24,VALID,0,VALID,94.7583,VALID,0,VALID,24.3052,VALID,2,VALID,0.622656,
2012-05-04, 01:41:05,VALID,1002.24,VALID,0,VALID,94.7125,VALID,0,VALID,24.3052,VALID,2,VALID,0.635156,
2012-05-04, 01:42:05,VALID,1002.22,VALID,0,VALID,94.6668,VALID,0,VALID,24.307,VALID,2,VALID,0.398828,
2012-05-04, 01:43:05,VALID,1002.22,VALID,0,VALID,94.6591,VALID,0,VALID,24.2857,VALID,2,VALID,0.54375,
2012-05-04, 01:44:05,VALID,1002.23,VALID,0,VALID,94.6591,VALID,0,VALID,24.2857,VALID,2,VALID,0.604297,
2012-05-04, 01:45:05,VALID,1002.2,VALID,0,VALID,94.6744,VALID,0.0815089,VALID,24.2857,VALID,2,VALID,0.329297,
2012-05-04, 01:46:05,VALID,1002.21,VALID,0,VALID,94.5981,VALID,0,VALID,24.2857,VALID,2,VALID,0,
2012-05-04, 01:47:05,VALID,1002.18,VALID,0,VALID,94.5447,VALID,0,VALID,24.2662,VALID,2,VALID,0,
2012-05-04, 01:48:05,VALID,1002.19,VALID,0,VALID,94.5295,VALID,0.0815089,VALID,24.2468,VALID,2,VALID,0,
2012-05-04, 01:49:05,VALID,1002.2,VALID,0,VALID,94.5142,VALID,0,VALID,24.2273,VALID,2,VALID,0,
2012-05-04, 01:50:05,VALID,1002.19,VALID,0,VALID,94.5371,VALID,0,VALID,24.2273,VALID,2,VALID,0,
2012-05-04, 01:51:05,VALID,1002.16,VALID,0,VALID,94.5523,VALID,0,VALID,24.2468,VALID,2,VALID,0,
2012-05-04, 01:52:05,VALID,1002.17,VALID,0,VALID,94.5905,VALID,0,VALID,24.2662,VALID,2,VALID,0,
2012-05-04, 01:53:05,VALID,1002.17,VALID,0,VALID,94.5676,VALID,0,VALID,24.2662,VALID,2,VALID,0,
2012-05-04, 01:54:05,VALID,1002.15,VALID,0,VALID,94.5447,VALID,0.0815089,VALID,24.2468,VALID,2,VALID,0,
2012-05-04, 01:55:05,VALID,1002.15,VALID,0,VALID,94.5295,VALID,0,VALID,24.2875,VALID,2,VALID,0,
2012-05-04, 01:56:05,VALID,1002.12,VALID,0,VALID,94.4684,VALID,0.0815089,VALID,24.2468,VALID,2,VALID,0,
2012-05-04, 01:57:05,VALID,1002.08,VALID,0,VALID,94.4379,VALID,0.0815089,VALID,24.206,VALID,2,VALID,0,
2012-05-04, 01:58:05,VALID,1002.09,VALID,0,VALID,94.3998,VALID,0,VALID,24.2291,VALID,2,VALID,0,
2012-05-04, 01:59:05,VALID,1002.09,VALID,0,VALID,94.3769,VALID,0,VALID,24.2078,VALID,2,VALID,0,
2012-05-04, 02:00:05,VALID,1002.09,VALID,0,VALID,94.3464,VALID,0,VALID,24.1884,VALID,2,VALID,0,
2012-05-04, 02:01:05,VALID,1002.07,VALID,0,VALID,94.3616,VALID,0,VALID,24.1884,VALID,2,VALID,0,
2012-05-04, 02:02:05,VALID,1002.08,VALID,0,VALID,94.3769,VALID,0.0815089,VALID,24.2078,VALID,2,VALID,0,
2012-05-04, 02:03:05,VALID,1002.05,VALID,0,VALID,94.3769,VALID,0,VALID,24.1884,VALID,2,VALID,0,
2012-05-04, 02:04:05,VALID,1002.06,VALID,0,VALID,94.354,VALID,0,VALID,24.1884,VALID,359,VALID,0,
2012-05-04, 02:05:05,VALID,1002.06,VALID,0,VALID,94.3311,VALID,0,VALID,24.1884,VALID,360,VALID,0,
2012-05-04, 02:06:05,VALID,1002.02,VALID,0,VALID,94.3158,VALID,0,VALID,24.1884,VALID,360,VALID,0,
2012-05-04, 02:07:05,VALID,1002.07,VALID,0,VALID,94.2853,VALID,0,VALID,24.1884,VALID,1,VALID,0,
2012-05-04, 02:08:05,VALID,1002.04,VALID,0,VALID,94.2396,VALID,0.0815089,VALID,24.1884,VALID,1,VALID,0,
2012-05-04, 02:09:05,VALID,1002.03,VALID,0,VALID,94.209,VALID,0,VALID,24.1902,VALID,1,VALID,0,
2012-05-04, 02:10:05,VALID,1002.04,VALID,0,VALID,94.209,VALID,0,VALID,24.1707,VALID,1,VALID,0,
2012-05-04, 02:11:05,VALID,1002.05,VALID,0,VALID,94.1938,VALID,0,VALID,24.1494,VALID,1,VALID,0,
2012-05-04, 02:12:05,VALID,1002.05,VALID,0,VALID,94.1938,VALID,0,VALID,24.1513,VALID,1,VALID,0,
2012-05-04, 02:13:05,VALID,1002.06,VALID,0,VALID,94.1938,VALID,0,VALID,24.1707,VALID,1,VALID,0,
2012-05-04, 02:14:05,VALID,1002.06,VALID,0,VALID,94.1633,VALID,0,VALID,24.1513,VALID,1,VALID,0,
2012-05-04, 02:15:05,VALID,1002.06,VALID,0,VALID,94.1709,VALID,0,VALID,24.1513,VALID,1,VALID,0,
2012-05-04, 02:16:05,VALID,1002.08,VALID,0,VALID,94.1785,VALID,0,VALID,24.1513,VALID,1,VALID,0,
2012-05-04, 02:17:05,VALID,1002.05,VALID,0,VALID,94.1938,VALID,0,VALID,24.1318,VALID,1,VALID,0,
2012-05-04, 02:18:05,VALID,1002.07,VALID,0,VALID,94.2319,VALID,0,VALID,24.1726,VALID,1,VALID,0,
2012-05-04, 02:19:05,VALID,1002.06,VALID,0,VALID,94.2396,VALID,0,VALID,24.1494,VALID,1,VALID,0,
2012-05-04, 02:20:05,VALID,1002.03,VALID,0,VALID,94.2243,VALID,0,VALID,24.1902,VALID,1,VALID,0,
2012-05-04, 02:21:05,VALID,1002.08,VALID,0,VALID,94.1938,VALID,0,VALID,24.13,VALID,1,VALID,0,
2012-05-04, 02:22:05,VALID,1002.08,VALID,0,VALID,94.1938,VALID,0,VALID,24.1707,VALID,1,VALID,0,
2012-05-04, 02:23:05,VALID,1002.04,VALID,0,VALID,94.1938,VALID,0,VALID,24.1513,VALID,1,VALID,0,
2012-05-04, 02:24:05,VALID,1002.04,VALID,0,VALID,94.1099,VALID,0,VALID,24.13,VALID,1,VALID,0,
2012-05-04, 02:25:05,VALID,1002.04,VALID,0,VALID,94.087,VALID,0,VALID,24.1105,VALID,1,VALID,0,
2012-05-04, 02:26:05,VALID,1002.01,VALID,0,VALID,94.148,VALID,0,VALID,24.1105,VALID,1,VALID,0,
2012-05-04, 02:27:05,VALID,1002,VALID,0,VALID,94.1633,VALID,0,VALID,24.1105,VALID,3,VALID,0,
2012-05-04, 02:28:05,VALID,1001.99,VALID,0,VALID,94.148,VALID,0,VALID,24.1123,VALID,3,VALID,0,
2012-05-04, 02:29:05,VALID,1002,VALID,0,VALID,94.1328,VALID,0,VALID,24.1105,VALID,3,VALID,0,
2012-05-04, 02:30:05,VALID,1001.98,VALID,0,VALID,94.1328,VALID,0,VALID,24.1123,VALID,3,VALID,0,
2012-05-04, 02:31:05,VALID,1001.96,VALID,0,VALID,94.1251,VALID,0,VALID,24.091,VALID,3,VALID,0,
2012-05-04, 02:32:05,VALID,1001.98,VALID,0,VALID,94.1022,VALID,0,VALID,24.1105,VALID,3,VALID,0,
2012-05-04, 02:33:05,VALID,1002,VALID,0,VALID,94.0946,VALID,0,VALID,24.091,VALID,3,VALID,0.476953,
2012-05-04, 02:34:05,VALID,1001.95,VALID,0,VALID,94.0412,VALID,0.0815089,VALID,24.0716,VALID,3,VALID,0.410156,
2012-05-04, 02:35:05,VALID,1001.95,VALID,0,VALID,94.0107,VALID,0,VALID,24.0521,VALID,3,VALID,0.423828,
2012-05-04, 02:36:05,VALID,1001.96,VALID,0,VALID,94.0107,VALID,0,VALID,24.0114,VALID,3,VALID,0,
2012-05-04, 02:37:05,VALID,1001.96,VALID,0,VALID,94.0031,VALID,0.0815089,VALID,24.0132,VALID,3,VALID,0,
2012-05-04, 02:38:05,VALID,1001.97,VALID,0,VALID,94.0031,VALID,0,VALID,24.0132,VALID,3,VALID,0,
2012-05-04, 02:39:05,VALID,1001.93,VALID,0,VALID,94.0107,VALID,0,VALID,23.9955,VALID,3,VALID,0,
2012-05-04, 02:40:05,VALID,1001.95,VALID,0,VALID,94.0412,VALID,0,VALID,23.9955,VALID,3,VALID,0,
2012-05-04, 02:41:05,VALID,1001.94,VALID,0,VALID,94.0565,VALID,0,VALID,23.9566,VALID,3,VALID,0,
2012-05-04, 02:42:05,VALID,1001.94,VALID,0,VALID,94.0641,VALID,0,VALID,23.9566,VALID,3,VALID,0,
2012-05-04, 02:43:05,VALID,1001.92,VALID,0,VALID,94.0794,VALID,0,VALID,23.9566,VALID,3,VALID,0,
2012-05-04, 02:44:05,VALID,1001.92,VALID,0,VALID,94.0946,VALID,0,VALID,23.9584,VALID,3,VALID,0,
2012-05-04, 02:45:05,VALID,1001.93,VALID,0,VALID,94.1022,VALID,0,VALID,23.9584,VALID,3,VALID,0,
2012-05-04, 02:46:05,VALID,1001.93,VALID,0,VALID,94.0946,VALID,0,VALID,23.9177,VALID,3,VALID,0,
2012-05-04, 02:47:05,VALID,1001.93,VALID,0,VALID,94.1251,VALID,0,VALID,23.9371,VALID,3,VALID,0,
2012-05-04, 02:48:05,VALID,1001.89,VALID,0,VALID,94.1404,VALID,0,VALID,23.9566,VALID,3,VALID,0,
2012-05-04, 02:49:05,VALID,1001.9,VALID,0,VALID,94.1099,VALID,0,VALID,23.9584,VALID,3,VALID,0,
2012-05-04, 02:50:05,VALID,1001.87,VALID,0,VALID,94.0794,VALID,0,VALID,23.9177,VALID,3,VALID,0,
2012-05-04, 02:51:05,VALID,1001.9,VALID,0,VALID,93.9954,VALID,0,VALID,23.8982,VALID,3,VALID,0,
2012-05-04, 02:52:05,VALID,1001.87,VALID,0,VALID,93.881,VALID,0,VALID,23.8593,VALID,3,VALID,0,
2012-05-04, 02:53:05,VALID,1001.87,VALID,0,VALID,94.0488,VALID,0,VALID,23.838,VALID,3,VALID,0.476953,
2012-05-04, 02:54:05,VALID,1001.84,VALID,0,VALID,94.1556,VALID,0.0815089,VALID,23.8964,VALID,355,VALID,0.875781,
2012-05-04, 02:55:05,VALID,1001.85,VALID,0,VALID,94.1633,VALID,0.0815089,VALID,23.9159,VALID,353,VALID,0.671094,
2012-05-04, 02:56:05,VALID,1001.83,VALID,0,VALID,94.1251,VALID,0.0815089,VALID,23.9159,VALID,352,VALID,0.740625,
2012-05-04, 02:57:05,VALID,1001.85,VALID,0,VALID,94.1099,VALID,0.0815089,VALID,23.9353,VALID,350,VALID,0.767969,
2012-05-04, 02:58:05,VALID,1001.84,VALID,0,VALID,94.0641,VALID,0.0815089,VALID,23.9353,VALID,350,VALID,0.584766,
2012-05-04, 02:59:05,VALID,1001.82,VALID,0,VALID,94.0412,VALID,0.0815089,VALID,23.914,VALID,349,VALID,0.656641,
2012-05-04, 03:00:05,VALID,1001.81,VALID,0,VALID,93.9725,VALID,0.0815089,VALID,23.914,VALID,345,VALID,0.637109,
2012-05-04, 03:01:05,VALID,1001.82,VALID,0,VALID,93.9039,VALID,0.0815089,VALID,23.9159,VALID,350,VALID,0.889063,
2012-05-04, 03:02:05,VALID,1001.79,VALID,0,VALID,93.9039,VALID,0.0815089,VALID,23.9353,VALID,352,VALID,0.615625,
2012-05-04, 03:03:05,VALID,1001.79,VALID,0,VALID,93.9573,VALID,0.0815089,VALID,23.914,VALID,352,VALID,0.504297,
2012-05-04, 03:04:05,VALID,1001.79,VALID,0,VALID,93.9191,VALID,0.0815089,VALID,23.9353,VALID,352,VALID,0.64375,
2012-05-04, 03:05:05,VALID,1001.77,VALID,0,VALID,93.9497,VALID,0.0815089,VALID,23.9335,VALID,345,VALID,0.714063,
2012-05-04, 03:06:05,VALID,1001.76,VALID,0,VALID,93.9268,VALID,0.0815089,VALID,23.9548,VALID,345,VALID,0.533984,
2012-05-04, 03:07:05,VALID,1001.78,VALID,0,VALID,93.8505,VALID,0.0815089,VALID,23.9548,VALID,345,VALID,0.351563,
2012-05-04, 03:08:05,VALID,1001.78,VALID,0,VALID,93.7895,VALID,0.0815089,VALID,23.914,VALID,345,VALID,0.283594,
2012-05-04, 03:09:05,VALID,1001.77,VALID,0,VALID,93.82,VALID,0,VALID,23.9371,VALID,345,VALID,0.349219,
2012-05-04, 03:10:05,VALID,1001.78,VALID,0,VALID,93.7361,VALID,0,VALID,23.9159,VALID,345,VALID,0.362891,
2012-05-04, 03:11:05,VALID,1001.78,VALID,0,VALID,93.82,VALID,0,VALID,23.9371,VALID,350,VALID,0.558203,
2012-05-04, 03:12:05,VALID,1001.83,VALID,0,VALID,93.7742,VALID,0,VALID,23.9177,VALID,350,VALID,0.301172,
2012-05-04, 03:13:05,VALID,1001.79,VALID,0,VALID,93.7971,VALID,0,VALID,23.9159,VALID,350,VALID,0.577734,
2012-05-04, 03:14:05,VALID,1001.82,VALID,0,VALID,93.9115,VALID,0,VALID,23.9742,VALID,350,VALID,0.374609,
2012-05-04, 03:15:05,VALID,1001.82,VALID,0,VALID,93.9268,VALID,0,VALID,24.015,VALID,344,VALID,0.751172,
2012-05-04, 03:16:05,VALID,1001.83,VALID,0,VALID,93.9573,VALID,0,VALID,24.0716,VALID,355,VALID,0.721484,
2012-05-04, 03:17:05,VALID,1001.82,VALID,0,VALID,93.7818,VALID,0,VALID,24.1318,VALID,353,VALID,0.361328,
2012-05-04, 03:18:05,VALID,1001.83,VALID,0,VALID,93.4385,VALID,0,VALID,24.1123,VALID,353,VALID,0.188672,
2012-05-04, 03:19:05,VALID,1001.8,VALID,0,VALID,93.1791,VALID,0,VALID,24.1123,VALID,353,VALID,0,
2012-05-04, 03:20:05,VALID,1001.8,VALID,0,VALID,93.0571,VALID,0,VALID,24.0326,VALID,353,VALID,0,
2012-05-04, 03:21:05,VALID,1001.82,VALID,0,VALID,93.0037,VALID,0,VALID,24.0132,VALID,353,VALID,0,
2012-05-04, 03:22:05,VALID,1001.82,VALID,0,VALID,92.9579,VALID,0,VALID,23.9937,VALID,353,VALID,0,
2012-05-04, 03:23:05,VALID,1001.82,VALID,0,VALID,92.7748,VALID,0,VALID,23.9353,VALID,353,VALID,0,
2012-05-04, 03:24:05,VALID,1001.83,VALID,0,VALID,92.813,VALID,0.0815089,VALID,23.8751,VALID,353,VALID,0,
2012-05-04, 03:25:05,VALID,1001.8,VALID,0,VALID,93.1181,VALID,0.0815089,VALID,23.8964,VALID,353,VALID,0,
2012-05-04, 03:26:05,VALID,1001.82,VALID,0,VALID,93.2631,VALID,0.0815089,VALID,23.8964,VALID,353,VALID,0,
2012-05-04, 03:27:05,VALID,1001.82,VALID,0,VALID,93.4156,VALID,0.0815089,VALID,23.9159,VALID,354,VALID,0,
2012-05-04, 03:28:05,VALID,1001.8,VALID,0,VALID,93.4538,VALID,0.0815089,VALID,23.9159,VALID,354,VALID,0,
2012-05-04, 03:29:05,VALID,1001.82,VALID,0,VALID,93.5072,VALID,0.0815089,VALID,23.9159,VALID,354,VALID,0,
2012-05-04, 03:30:05,VALID,1001.82,VALID,0,VALID,93.5301,VALID,0.0815089,VALID,23.8946,VALID,354,VALID,0,
2012-05-04, 03:31:05,VALID,1001.79,VALID,0,VALID,93.5758,VALID,0.0815089,VALID,23.9159,VALID,354,VALID,0,
2012-05-04, 03:32:05,VALID,1001.82,VALID,0,VALID,93.5606,VALID,0.0815089,VALID,23.8751,VALID,354,VALID,0,
2012-05-04, 03:33:05,VALID,1001.79,VALID,0,VALID,93.5301,VALID,0.163018,VALID,23.8556,VALID,354,VALID,0,
2012-05-04, 03:34:05,VALID,1001.8,VALID,0,VALID,93.5453,VALID,0.0815089,VALID,23.8362,VALID,354,VALID,0,
2012-05-04, 03:35:05,VALID,1001.78,VALID,0,VALID,93.553,VALID,0.0815089,VALID,23.8167,VALID,354,VALID,0,
2012-05-04, 03:36:05,VALID,1001.77,VALID,0,VALID,93.5682,VALID,0.0815089,VALID,23.8167,VALID,354,VALID,0,
2012-05-04, 03:37:05,VALID,1001.75,VALID,0,VALID,93.5758,VALID,0.0815089,VALID,23.7991,VALID,354,VALID,0,
2012-05-04, 03:38:05,VALID,1001.79,VALID,0,VALID,93.5911,VALID,0.0815089,VALID,23.7389,VALID,354,VALID,0,
2012-05-04, 03:39:05,VALID,1001.81,VALID,0,VALID,93.614,VALID,0,VALID,23.7407,VALID,354,VALID,0,
2012-05-04, 03:40:05,VALID,1001.79,VALID,0,VALID,93.5911,VALID,0,VALID,23.723,VALID,354,VALID,0,
2012-05-04, 03:41:05,VALID,1001.78,VALID,0,VALID,93.6979,VALID,0,VALID,23.6823,VALID,354,VALID,0,
2012-05-04, 03:42:05,VALID,1001.78,VALID,0,VALID,93.7818,VALID,0,VALID,23.6823,VALID,354,VALID,0,
2012-05-04, 03:43:05,VALID,1001.77,VALID,0,VALID,93.8505,VALID,0,VALID,23.6434,VALID,354,VALID,0,
2012-05-04, 03:44:05,VALID,1001.79,VALID,0,VALID,93.9115,VALID,0,VALID,23.6434,VALID,354,VALID,0,
2012-05-04, 03:45:05,VALID,1001.78,VALID,0,VALID,93.9344,VALID,0,VALID,23.6646,VALID,354,VALID,0,
2012-05-04, 03:46:05,VALID,1001.8,VALID,0,VALID,94.0031,VALID,0.0815089,VALID,23.6628,VALID,354,VALID,0,
2012-05-04, 03:47:05,VALID,1001.78,VALID,0,VALID,94.0412,VALID,0,VALID,23.6434,VALID,354,VALID,0,
2012-05-04, 03:48:05,VALID,1001.78,VALID,0,VALID,94.1022,VALID,0,VALID,23.6646,VALID,354,VALID,0,
2012-05-04, 03:49:05,VALID,1001.79,VALID,0,VALID,94.1099,VALID,0.0815089,VALID,23.6239,VALID,354,VALID,0,
2012-05-04, 03:50:05,VALID,1001.8,VALID,0,VALID,94.1175,VALID,0,VALID,23.6452,VALID,354,VALID,0,
2012-05-04, 03:51:04,VALID,1001.78,VALID,0,VALID,94.1251,VALID,0,VALID,23.6452,VALID,354,VALID,0,
2012-05-04, 03:52:04,VALID,1001.76,VALID,0,VALID,94.1633,VALID,0,VALID,23.6434,VALID,354,VALID,0,